When you browse on this site, cookies collect data to enhance your experience and personalize the content and advertising you see.
Visit our Privacy Policy to learn more. By continuing to use the site, you agree to this use of cookies and data.
  • In Netherlands
  • List of Countries
  • For 7 days
  • Water Temperature
  • Weather Map
  • Weather Widgets
  • user-avatar
    Login

    Hourly Weather Kanye

    Today, 4 June, Thursday

    Time Temperature Precipitation Wind Pressure Humidity
    00:00 +12°C° 0 mm 1 mps 653 mmHg 45%
    01:00 +12°C° 0 mm 1 mps 653 mmHg 47%
    02:00 +10°C° 0 mm 2 mps 653 mmHg 50%
    03:00 +11°C° 0 mm 1 mps 653 mmHg 52%
    04:00 +10°C° 0 mm 1 mps 652 mmHg 54%
    05:00 +10°C° 0 mm 1 mps 652 mmHg 57%
    06:00 +11°C° 0 mm 1 mps 653 mmHg 53%
    07:00 +10°C° 0 mm 2 mps 653 mmHg 50%
    08:00 +13°C° 0 mm 2 mps 655 mmHg 45%
    09:00 +16°C° 0 mm 2 mps 655 mmHg 39%
    10:00 +18°C° 0 mm 3 mps 656 mmHg 33%
    11:00 +20°C° 0 mm 3 mps 656 mmHg 27%
    12:00 +21°C° 0 mm 4 mps 656 mmHg 24%
    13:00 +22°C° 0 mm 4 mps 655 mmHg 21%
    14:00 +23°C° 0 mm 4 mps 655 mmHg 18%
    15:00 +22°C° 0 mm 4 mps 655 mmHg 19%
    16:00 +21°C° 0 mm 3 mps 655 mmHg 20%
    17:00 +20°C° 0 mm 3 mps 654 mmHg 21%
    18:00 +18°C° 0 mm 3 mps 654 mmHg 25%
    19:00 +16°C° 0 mm 2 mps 654 mmHg 28%
    20:00 +14°C° 0 mm 2 mps 654 mmHg 32%
    21:00 +14°C° 0 mm 2 mps 654 mmHg 33%
    22:00 +13°C° 0 mm 2 mps 654 mmHg 35%
    23:00 +12°C° 0 mm 1 mps 654 mmHg 37%

    Tomorrow, 5 June, Friday

    Time Temperature Precipitation Wind Pressure Humidity
    00:00 +12°C° 0 mm 2 mps 654 mmHg 39%
    01:00 +12°C° 0 mm 2 mps 654 mmHg 40%
    02:00 +10°C° 0 mm 3 mps 653 mmHg 42%
    03:00 +10°C° 0 mm 3 mps 653 mmHg 46%
    04:00 +9°C° 0 mm 3 mps 654 mmHg 50%
    05:00 +8°C° 0 mm 3 mps 654 mmHg 54%
    06:00 +9°C° 0 mm 3 mps 654 mmHg 56%
    07:00 +9°C° 0 mm 3 mps 654 mmHg 58%
    08:00 +9°C° 0 mm 3 mps 655 mmHg 61%
    09:00 +12°C° 0 mm 3 mps 656 mmHg 55%
    10:00 +14°C° 0 mm 4 mps 656 mmHg 49%
    11:00 +18°C° 0 mm 4 mps 657 mmHg 43%
    12:00 +19°C° 0 mm 4 mps 657 mmHg 38%
    13:00 +20°C° 0 mm 3 mps 656 mmHg 32%
    14:00 +21°C° 0 mm 3 mps 656 mmHg 27%
    15:00 +21°C° 0 mm 2 mps 656 mmHg 27%
    16:00 +20°C° 0 mm 2 mps 655 mmHg 27%
    17:00 +19°C° 0 mm 2 mps 655 mmHg 27%
    18:00 +18°C° 0 mm 1 mps 655 mmHg 32%
    19:00 +15°C° 0 mm 1 mps 655 mmHg 37%
    20:00 +13°C° 0 mm 1 mps 654 mmHg 42%
    21:00 +12°C° 0 mm 1 mps 654 mmHg 45%
    22:00 +12°C° 0 mm 1 mps 654 mmHg 47%
    23:00 +11°C° 0 mm 1 mps 654 mmHg 50%

    Day after tomorrow, 6 June, Saturday

    Time Temperature Precipitation Wind Pressure Humidity
    00:00 +11°C° 0 mm 1 mps 654 mmHg 54%
    01:00 +10°C° 0 mm 1 mps 654 mmHg 58%
    02:00 +9°C° 0 mm 0 mps 654 mmHg 62%
    03:00 +8°C° 0 mm 0 mps 654 mmHg 63%
    04:00 +8°C° 0 mm 0 mps 654 mmHg 64%
    05:00 +8°C° 0 mm 0 mps 654 mmHg 65%
    06:00 +10°C° 0 mm 1 mps 654 mmHg 60%
    07:00 +11°C° 0 mm 1 mps 655 mmHg 56%
    08:00 +12°C° 0 mm 1 mps 656 mmHg 51%
    09:00 +14°C° 0 mm 2 mps 656 mmHg 44%
    10:00 +17°C° 0 mm 2 mps 657 mmHg 38%
    11:00 +19°C° 0 mm 2 mps 657 mmHg 31%
    12:00 +20°C° 0 mm 2 mps 657 mmHg 27%
    13:00 +21°C° 0 mm 2 mps 657 mmHg 23%
    14:00 +23°C° 0 mm 2 mps 656 mmHg 20%
    15:00 +23°C° 0 mm 2 mps 656 mmHg 21%
    16:00 +21°C° 0 mm 2 mps 656 mmHg 21%
    17:00 +20°C° 0 mm 2 mps 655 mmHg 22%
    18:00 +18°C° 0 mm 2 mps 655 mmHg 28%
    19:00 +16°C° 0 mm 2 mps 655 mmHg 33%
    20:00 +13°C° 0 mm 2 mps 655 mmHg 38%
    21:00 +13°C° 0 mm 2 mps 655 mmHg 41%
    22:00 +12°C° 0 mm 2 mps 655 mmHg 44%
    23:00 +12°C° 0 mm 2 mps 655 mmHg 47%

    7 June, Sunday

    Time Temperature Precipitation Wind Pressure Humidity
    00:00 +10°C° 0 mm 2 mps 655 mmHg 50%
    01:00 +11°C° 0 mm 1 mps 654 mmHg 54%
    02:00 +10°C° 0 mm 1 mps 654 mmHg 58%
    03:00 +10°C° 0 mm 1 mps 654 mmHg 60%
    04:00 +9°C° 0 mm 1 mps 654 mmHg 62%
    05:00 +9°C° 0 mm 1 mps 654 mmHg 65%
    06:00 +9°C° 0 mm 1 mps 654 mmHg 61%
    07:00 +10°C° 0 mm 1 mps 655 mmHg 57%
    08:00 +11°C° 0 mm 1 mps 656 mmHg 53%
    09:00 +14°C° 0 mm 2 mps 656 mmHg 45%
    10:00 +16°C° 0 mm 2 mps 657 mmHg 38%
    11:00 +19°C° 0 mm 2 mps 657 mmHg 31%
    12:00 +20°C° 0 mm 2 mps 657 mmHg 28%
    13:00 +21°C° 0 mm 2 mps 657 mmHg 24%
    14:00 +23°C° 0 mm 2 mps 656 mmHg 20%
    15:00 +21°C° 0 mm 2 mps 656 mmHg 21%
    16:00 +21°C° 0 mm 2 mps 655 mmHg 22%
    17:00 +20°C° 0 mm 2 mps 655 mmHg 23%
    18:00 +18°C° 0 mm 2 mps 655 mmHg 27%
    19:00 +15°C° 0 mm 2 mps 654 mmHg 32%
    20:00 +13°C° 0 mm 2 mps 654 mmHg 36%
    21:00 +13°C° 0 mm 2 mps 654 mmHg 38%
    22:00 +12°C° 0 mm 2 mps 654 mmHg 40%
    23:00 +12°C° 0 mm 2 mps 654 mmHg 41%

    8 June, Monday

    Time Temperature Precipitation Wind Pressure Humidity
    00:00 +11°C° 0 mm 1 mps 654 mmHg 44%
    01:00 +11°C° 0 mm 1 mps 654 mmHg 46%
    02:00 +10°C° 0 mm 1 mps 653 mmHg 48%
    03:00 +10°C° 0 mm 1 mps 653 mmHg 51%
    04:00 +9°C° 0 mm 1 mps 653 mmHg 53%
    05:00 +8°C° 0 mm 0 mps 653 mmHg 56%
    06:00 +10°C° 0 mm 1 mps 653 mmHg 52%
    07:00 +11°C° 0 mm 1 mps 654 mmHg 48%
    08:00 +11°C° 0 mm 1 mps 655 mmHg 45%
    09:00 +14°C° 0 mm 2 mps 655 mmHg 39%
    10:00 +17°C° 0 mm 2 mps 656 mmHg 33%
    11:00 +19°C° 0 mm 2 mps 656 mmHg 27%
    12:00 +20°C° 0 mm 2 mps 656 mmHg 24%
    13:00 +21°C° 0 mm 3 mps 655 mmHg 22%
    14:00 +22°C° 0 mm 3 mps 655 mmHg 19%
    15:00 +21°C° 0 mm 3 mps 654 mmHg 20%
    16:00 +21°C° 0 mm 2 mps 654 mmHg 21%
    17:00 +20°C° 0 mm 2 mps 654 mmHg 22%
    18:00 +18°C° 0 mm 2 mps 653 mmHg 25%
    19:00 +16°C° 0 mm 2 mps 653 mmHg 29%
    20:00 +13°C° 0 mm 2 mps 653 mmHg 33%
    21:00 +13°C° 0 mm 2 mps 653 mmHg 35%
    22:00 +12°C° 0 mm 2 mps 653 mmHg 37%
    23:00 +12°C° 0 mm 2 mps 653 mmHg 39%

    9 June, Tuesday

    Time Temperature Precipitation Wind Pressure Humidity
    00:00 +10°C° 0 mm 2 mps 653 mmHg 41%
    01:00 +11°C° 0 mm 1 mps 652 mmHg 43%
    02:00 +11°C° 0 mm 1 mps 652 mmHg 45%
    03:00 +9°C° 0 mm 2 mps 652 mmHg 46%
    04:00 +9°C° 0 mm 2 mps 652 mmHg 47%
    05:00 +8°C° 0 mm 2 mps 652 mmHg 48%
    06:00 +9°C° 0 mm 2 mps 652 mmHg 46%
    07:00 +9°C° 0 mm 2 mps 653 mmHg 45%
    08:00 +10°C° 0 mm 3 mps 653 mmHg 44%
    09:00 +13°C° 0 mm 3 mps 654 mmHg 39%
    10:00 +15°C° 0 mm 4 mps 654 mmHg 35%
    11:00 +19°C° 0 mm 5 mps 655 mmHg 31%
    12:00 +20°C° 0 mm 5 mps 654 mmHg 28%
    13:00 +21°C° 0 mm 5 mps 654 mmHg 25%
    14:00 +22°C° 0 mm 5 mps 653 mmHg 22%
    15:00 +21°C° 0 mm 4 mps 653 mmHg 23%
    16:00 +21°C° 0 mm 4 mps 652 mmHg 24%
    17:00 +20°C° 0 mm 3 mps 652 mmHg 25%
    18:00 +18°C° 0 mm 3 mps 652 mmHg 30%
    19:00 +16°C° 0 mm 3 mps 651 mmHg 34%
    20:00 +13°C° 0 mm 2 mps 651 mmHg 38%
    21:00 +13°C° 0 mm 2 mps 651 mmHg 40%
    22:00 +12°C° 0 mm 2 mps 651 mmHg 41%
    23:00 +10°C° 0 mm 2 mps 651 mmHg 42%
    Show more